This is the latest recevied weather packets stored in our database for station/object N9NDF. If no packets are shown the sender has not sent any weather packets the latest 10 day(s).
| Time | Temp. | Humidity | Pressure | Rain* | Wind** | Luminosity | Snow |
|---|---|---|---|---|---|---|---|
| 1777948901 | 16.67° C | 81% | 980.4 hPa | 2.54 mm | - | 0 W/m² | - |
| 1777948840 | 16.67° C | 80% | 980.5 hPa | 2.54 mm | - | 0 W/m² | - |
| 1777948781 | 16.67° C | 81% | 980.6 hPa | 2.29 mm | - | 0 W/m² | - |
| 1777948720 | 16.67° C | 81% | 980.4 hPa | 2.29 mm | - | 0 W/m² | - |
| 1777948667 | 16.11° C | 82% | 980.6 hPa | 2.29 mm | - | 0 W/m² | - |
| 1777948597 | 16.11° C | 83% | 980.6 hPa | 2.29 mm | - | 0 W/m² | - |
| 1777948538 | 16.67° C | 84% | 980.6 hPa | 2.29 mm | - | 0 W/m² | - |
| 1777948478 | 16.67° C | 83% | 980.6 hPa | 2.29 mm | - | 0 W/m² | - |
| 1777948416 | 16.67° C | 83% | 980.6 hPa | 2.03 mm | - | 0 W/m² | - |
| 1777948356 | 16.67° C | 82% | 980.7 hPa | 2.03 mm | - | 0 W/m² | - |
| 1777948296 | 16.67° C | 82% | 980.6 hPa | 2.03 mm | - | 0 W/m² | - |
| 1777948237 | 16.67° C | 82% | 980.5 hPa | 1.78 mm | - | 0 W/m² | - |
| 1777948176 | 17.22° C | 81% | 980.6 hPa | 1.78 mm | - | 0 W/m² | - |
| 1777948117 | 17.22° C | 80% | 980.6 hPa | 1.78 mm | - | 0 W/m² | - |
| 1777948056 | 17.22° C | 79% | 980.5 hPa | 1.78 mm | - | 0 W/m² | - |
| 1777947996 | 17.78° C | 79% | 980.5 hPa | 1.52 mm | - | 0 W/m² | - |
| 1777947935 | 17.78° C | 78% | 980.7 hPa | 1.52 mm | - | 0 W/m² | - |
| 1777947875 | 17.78° C | 77% | 980.6 hPa | 1.52 mm | - | 0 W/m² | - |
| 1777947816 | 18.33° C | 76% | 980.7 hPa | 1.52 mm | - | 0 W/m² | - |
| 1777947756 | 18.33° C | 75% | 980.8 hPa | 1.52 mm | - | 0 W/m² | - |
| 1777947695 | 18.33° C | 74% | 980.8 hPa | 1.52 mm | - | 0 W/m² | - |
| 1777947663 | 18.33° C | 72% | 980.9 hPa | 1.02 mm | - | 0 W/m² | - |
| 1777947576 | 18.33° C | 70% | 980.9 hPa | 0.76 mm | - | 0 W/m² | - |
| 1777947516 | 18.33° C | 69% | 980.8 hPa | 0.51 mm | - | 0 W/m² | - |
| 1777947456 | 18.33° C | 69% | 980.8 hPa | 0.25 mm | - | 0 W/m² | - |
* Rain latest hour (hover to see other rain measurements)
** Current wind speed in m/s (hover to see current wind gust speed)